This is the latest recevied weather packets stored in our database for station/object N2XP-3. If no packets are shown the sender has not sent any weather packets the latest 10 day(s).
| Time | Temp. | Humidity | Pressure | Rain* | Wind** | Luminosity | Snow |
|---|---|---|---|---|---|---|---|
| 1777940585 | 15.56° C | 58% | 1007.4 hPa | 0 mm | 0 m/s | - | - |
| 1777940537 | 15.56° C | 58% | 1007.4 hPa | 0 mm | 0 m/s | - | - |
| 1777940238 | 16.11° C | 57% | 1007.4 hPa | 0 mm | 0 m/s | - | - |
| 1777939933 | 16.11° C | 56% | 1007.4 hPa | 0 mm | 0.45 m/s, 201° | - | - |
| 1777939025 | 16.67° C | 54% | 1007 hPa | 0 mm | 1.34 m/s, 229° | - | - |
| 1777938720 | 17.22° C | 53% | 1007 hPa | 0 mm | 0.45 m/s, 321° | - | - |
| 1777938476 | 17.22° C | 52% | 1006.9 hPa | 0 mm | 0.45 m/s, 170° | - | - |
| 1777938420 | 17.22° C | 52% | 1006.9 hPa | 0 mm | 0.45 m/s, 170° | - | - |
| 1777937812 | 17.22° C | 51% | 1006.8 hPa | 0 mm | 0.45 m/s, 232° | - | - |
| 1777937510 | 17.78° C | 51% | 1006.7 hPa | 0 mm | 1.34 m/s, 228° | - | - |
| 1777937211 | 17.78° C | 51% | 1006.7 hPa | 0 mm | 1.34 m/s, 205° | - | - |
| 1777936907 | 18.33° C | 50% | 1006.6 hPa | 0 mm | 0.45 m/s, 304° | - | - |
| 1777936605 | 18.33° C | 49% | 1006.6 hPa | 0 mm | 0.45 m/s, 233° | - | - |
| 1777936305 | 18.33° C | 48% | 1006.5 hPa | 0 mm | 1.34 m/s, 195° | - | - |
| 1777936000 | 18.89° C | 47% | 1006.4 hPa | 0 mm | 0.89 m/s, 271° | - | - |
| 1777935700 | 18.89° C | 47% | 1006.4 hPa | 0 mm | 1.34 m/s, 300° | - | - |
| 1777935398 | 19.44° C | 46% | 1006.4 hPa | 0 mm | 1.34 m/s, 208° | - | - |
| 1777934796 | 19.44° C | 45% | 1006.3 hPa | 0 mm | 1.34 m/s, 201° | - | - |
| 1777934497 | 20° C | 44% | 1006.4 hPa | 0 mm | 0.45 m/s, 280° | - | - |
| 1777934189 | 20° C | 43% | 1006.4 hPa | 0 mm | 0.89 m/s, 329° | - | - |
| 1777933889 | 20.56° C | 42% | 1006.4 hPa | 0 mm | 2.68 m/s, 323° | - | - |
| 1777933632 | 20.56° C | 42% | 1006.4 hPa | 0 mm | 3.13 m/s, 190° | - | - |
| 1777933590 | 20.56° C | 42% | 1006.4 hPa | 0 mm | 3.13 m/s, 190° | - | - |
| 1777933285 | 21.11° C | 42% | 1006.4 hPa | 0 mm | 2.68 m/s, 288° | - | - |
| 1777931460 | 21.11° C | 41% | 1006.5 hPa | 0 mm | 0.45 m/s, 239° | - | - |
* Rain latest hour (hover to see other rain measurements)
** Current wind speed in m/s (hover to see current wind gust speed)